| time (UTC) | temp F | wind direction | speed knots | gust knots | rain 1hr in | rain 24hr in | rain mn in | humidity % | barometer mb |
| 20260508125723 | 67 | 281 | 1.7 | 7.8 | 0.00 | 0.00 | 0.00 | 47 | 1010.9 |
| 20260508125226 | 67 | 218 | 0.9 | 7.8 | 0.00 | 0.00 | 0.00 | 45 | 1010.8 |
| 20260508124734 | 67 | 155 | 0.9 | 10.4 | 0.00 | 0.00 | 0.00 | 46 | 1010.8 |
| 20260508124235 | 66 | 208 | 3.5 | 10.4 | 0.00 | 0.00 | 0.00 | 49 | 1011.0 |
| 20260508123721 | 66 | 202 | 0.9 | 12.2 | 0.00 | 0.00 | 0.00 | 49 | 1010.9 |
| 20260508123220 | 66 | 269 | 3.5 | 12.2 | 0.00 | 0.00 | 0.00 | 48 | 1011.1 |
| 20260508122730 | 66 | 205 | 1.7 | 9.6 | 0.00 | 0.00 | 0.00 | 47 | 1011.1 |
| 20260508122219 | 67 | 238 | 0.9 | 9.6 | 0.00 | 0.00 | 0.00 | 44 | 1011.2 |
| 20260508121754 | 67 | 210 | 2.6 | 13.0 | 0.00 | 0.00 | 0.00 | 46 | 1011.2 |
| 20260508121237 | 67 | 202 | 3.5 | 13.0 | 0.00 | 0.00 | 0.00 | 46 | 1011.1 |
| 20260508120717 | 67 | 248 | 4.3 | 12.2 | 0.00 | 0.00 | 0.00 | 47 | 1011.2 |
| 20260508120251 | 67 | 192 | 2.6 | 12.2 | 0.00 | 0.00 | 0.00 | 48 | 1011.2 |
| 20260508115737 | 67 | 261 | 3.5 | 7.8 | 0.00 | 0.00 | 0.00 | 49 | 1011.1 |
| 20260508115221 | 66 | 251 | 1.7 | 7.0 | 0.00 | 0.00 | 0.00 | 51 | 1011.2 |
| 20260508114729 | 65 | 204 | 1.7 | 8.7 | 0.00 | 0.00 | 0.00 | 51 | 1011.3 |
| 20260508114217 | 65 | 195 | 3.5 | 8.7 | 0.00 | 0.00 | 0.00 | 52 | 1011.5 |
| 20260508113725 | 65 | 213 | 3.5 | 12.2 | 0.00 | 0.00 | 0.00 | 54 | 1011.6 |
| 20260508113243 | 64 | 224 | 3.5 | 12.2 | 0.00 | 0.00 | 0.00 | 53 | 1011.8 |
| 20260508112726 | 64 | 183 | 4.3 | 9.6 | 0.00 | 0.00 | 0.00 | 54 | 1011.8 |
| 20260508112225 | 64 | 200 | 1.7 | 9.6 | 0.00 | 0.00 | 0.00 | 56 | 1011.8 |
| 20260508111718 | 63 | 265 | 1.7 | 4.3 | 0.00 | 0.00 | 0.00 | 59 | 1011.7 |
| 20260508111227 | 62 | 178 | 0.0 | 0.9 | 0.00 | 0.00 | 0.00 | 58 | 1011.9 |
| 20260508110732 | 62 | 191 | 0.0 | 0.9 | 0.00 | 0.00 | 0.00 | 58 | 1011.9 |
| 20260508110221 | 63 | 229 | 0.0 | 0.0 | 0.00 | 0.00 | 0.00 | 57 | 1011.9 |
| 20260508105747 | 63 | 206 | 0.0 | 10.4 | 0.00 | 0.00 | 0.00 | 58 | 1012.0 |
| 20260508105230 | 63 | 252 | 2.6 | 10.4 | 0.00 | 0.00 | 0.00 | 58 | 1011.8 |
| 20260508104721 | 63 | 186 | 0.0 | 6.1 | 0.00 | 0.00 | 0.00 | 57 | 1011.9 |
| 20260508104222 | 63 | 244 | 1.7 | 3.5 | 0.00 | 0.00 | 0.00 | 60 | 1011.9 |
| 20260508103758 | 63 | 233 | 0.9 | 6.1 | 0.00 | 0.00 | 0.00 | 59 | 1012.0 |
| 20260508103223 | 63 | 259 | 1.7 | 6.1 | 0.00 | 0.00 | 0.00 | 59 | 1012.0 |
| 20260508102717 | 62 | 222 | 0.9 | 1.7 | 0.00 | 0.00 | 0.00 | 61 | 1012.0 |
| 20260508102219 | 62 | 275 | 0.0 | 0.9 | 0.00 | 0.00 | 0.00 | 61 | 1012.0 |
| 20260508101717 | 62 | 213 | 0.0 | 0.9 | 0.00 | 0.00 | 0.00 | 61 | 1012.0 |
| 20260508101220 | 62 | 237 | 0.0 | 0.9 | 0.00 | 0.00 | 0.00 | 61 | 1012.0 |
| 20260508100725 | 62 | 229 | 0.0 | 4.3 | 0.00 | 0.00 | 0.00 | 63 | 1012.0 |
| 20260508100226 | 62 | 216 | 0.0 | 5.2 | 0.00 | 0.00 | 0.00 | 63 | 1011.9 |
| 20260508095729 | 62 | 271 | 2.6 | 5.2 | 0.00 | 0.00 | 0.00 | 68 | 1011.9 |
| 20260508095241 | 61 | 257 | 0.0 | 1.7 | 0.00 | 0.00 | 0.00 | 68 | 1011.9 |
| 20260508094718 | 61 | 227 | 0.0 | 0.0 | 0.00 | 0.00 | 0.00 | 69 | 1011.9 |
| 20260508094304 | 62 | 252 | 0.0 | 7.8 | 0.00 | 0.00 | 0.00 | 66 | 1011.9 |
| 20260508093724 | 63 | 225 | 3.5 | 7.8 | 0.00 | 0.00 | 0.00 | 62 | 1011.9 |
| 20260508093231 | 64 | 231 | 3.5 | 8.7 | 0.00 | 0.00 | 0.00 | 59 | 1011.8 |
| 20260508092731 | 63 | 196 | 5.2 | 8.7 | 0.00 | 0.00 | 0.00 | 59 | 1011.7 |
| 20260508092237 | 63 | 180 | 1.7 | 4.3 | 0.00 | 0.00 | 0.00 | 61 | 1011.7 |
| 20260508091745 | 63 | 181 | 1.7 | 5.2 | 0.00 | 0.00 | 0.00 | 60 | 1011.8 |
| 20260508091243 | 63 | 185 | 0.9 | 5.2 | 0.00 | 0.00 | 0.00 | 61 | 1011.7 |
| 20260508090718 | 62 | 178 | 1.7 | 4.3 | 0.00 | 0.00 | 0.00 | 64 | 1011.6 |
| 20260508090245 | 62 | 200 | 0.0 | 2.6 | 0.00 | 0.00 | 0.00 | 64 | 1011.6 |
| 20260508085757 | 62 | 189 | 0.0 | 3.5 | 0.00 | 0.00 | 0.00 | 65 | 1011.6 |
| 20260508085227 | 62 | 183 | 1.7 | 4.3 | 0.00 | 0.00 | 0.00 | 66 | 1011.8 |
| 20260508084731 | 61 | 191 | 1.7 | 6.1 | 0.00 | 0.00 | 0.00 | 66 | 1011.8 |
| 20260508084223 | 61 | 184 | 1.7 | 6.1 | 0.00 | 0.00 | 0.00 | 67 | 1011.8 |
| 20260508083736 | 61 | 196 | 0.9 | 4.3 | 0.00 | 0.02 | 0.00 | 68 | 1011.8 |
| 20260508083235 | 61 | 115 | 0.0 | 0.0 | 0.00 | 0.02 | 0.00 | 70 | 1011.6 |
| 20260508082731 | 60 | 115 | 0.0 | 0.0 | 0.00 | 0.02 | 0.00 | 70 | 1011.5 |
| 20260508082231 | 60 | 115 | 0.0 | 0.0 | 0.00 | 0.02 | 0.00 | 70 | 1011.5 |
| 20260508081739 | 60 | 115 | 0.0 | 0.0 | 0.00 | 0.02 | 0.00 | 71 | 1011.6 |
| 20260508081231 | 60 | 115 | 0.0 | 0.0 | 0.00 | 0.02 | 0.00 | 70 | 1011.5 |
| 20260508080726 | 60 | 115 | 0.0 | 0.0 | 0.00 | 0.02 | 0.00 | 71 | 1011.6 |
| 20260508080234 | 60 | 101 | 0.0 | 0.0 | 0.00 | 0.02 | 0.00 | 73 | 1011.6 |
| 20260508075727 | 59 | 74 | 0.0 | 0.0 | 0.00 | 0.02 | 0.00 | 74 | 1011.7 |
| 20260508075230 | 58 | 73 | 0.0 | 0.0 | 0.00 | 0.02 | 0.00 | 75 | 1011.7 |
| 20260508074740 | 58 | 73 | 0.0 | 0.0 | 0.00 | 0.02 | 0.00 | 76 | 1011.6 |
| 20260508074256 | 58 | 74 | 0.0 | 0.0 | 0.00 | 0.02 | 0.00 | 78 | 1011.7 |
| 20260508073732 | 58 | 73 | 0.0 | 0.0 | 0.00 | 0.02 | 0.00 | 78 | 1011.7 |
| 20260508073242 | 57 | 74 | 0.0 | 0.0 | 0.00 | 0.02 | 0.00 | 80 | 1011.7 |
| 20260508072734 | 57 | 74 | 0.0 | 0.0 | 0.00 | 0.02 | 0.00 | 81 | 1011.5 |
| 20260508072250 | 56 | 74 | 0.0 | 0.0 | 0.00 | 0.02 | 0.00 | 82 | 1011.5 |
| 20260508071718 | 56 | 74 | 0.0 | 0.0 | 0.00 | 0.02 | 0.00 | 83 | 1011.3 |
| 20260508071224 | 55 | 74 | 0.0 | 0.0 | 0.00 | 0.02 | 0.00 | 85 | 1011.4 |
| 20260508070748 | 55 | 74 | 0.0 | 0.0 | 0.00 | 0.02 | 0.00 | 86 | 1011.4 |
| 20260508070228 | 54 | 74 | 0.0 | 0.0 | 0.00 | 0.02 | 0.00 | 87 | 1011.4 |
| 20260508065732 | 54 | 74 | 0.0 | 0.0 | 0.00 | 0.02 | 0.00 | 88 | 1011.4 |
| 20260508065222 | 53 | 74 | 0.0 | 0.0 | 0.00 | 0.02 | 0.00 | 89 | 1011.4 |
| 20260508064729 | 53 | 74 | 0.0 | 0.0 | 0.00 | 0.02 | 0.00 | 90 | 1011.4 |
| 20260508064233 | 52 | 74 | 0.0 | 0.0 | 0.00 | 0.02 | 0.00 | 90 | 1011.3 |
| 20260508063734 | 52 | 74 | 0.0 | 0.0 | 0.00 | 0.02 | 0.00 | 90 | 1011.4 |
| 20260508063235 | 52 | 74 | 0.0 | 0.0 | 0.00 | 0.02 | 0.00 | 90 | 1011.4 |
| 20260508062719 | 51 | 74 | 0.0 | 0.0 | 0.00 | 0.02 | 0.00 | 90 | 1011.4 |
| 20260508062235 | 51 | 74 | 0.0 | 0.0 | 0.00 | 0.02 | 0.00 | 90 | 1011.4 |
| 20260508061741 | 51 | 74 | 0.0 | 0.0 | 0.00 | 0.02 | 0.00 | 90 | 1011.5 |
| 20260508061240 | 51 | 74 | 0.0 | 0.0 | 0.00 | 0.02 | 0.00 | 90 | 1011.5 |
| 20260508060804 | 51 | 74 | 0.0 | 0.0 | 0.00 | 0.02 | 0.00 | 90 | 1011.5 |
| 20260508060222 | 51 | 74 | 0.0 | 0.0 | 0.00 | 0.02 | 0.00 | 90 | 1011.5 |
| 20260508055745 | 51 | 74 | 0.0 | 0.0 | 0.00 | 0.02 | 0.00 | 90 | 1011.5 |
| 20260508055241 | 51 | 74 | 0.0 | 0.0 | 0.00 | 0.02 | 0.00 | 90 | 1011.3 |
| 20260508054723 | 51 | 74 | 0.0 | 0.0 | 0.00 | 0.02 | 0.00 | 90 | 1011.1 |
| 20260508054224 | 51 | 74 | 0.0 | 0.0 | 0.00 | 0.02 | 0.00 | 90 | 1011.1 |
| 20260508053716 | 51 | 74 | 0.0 | 0.0 | 0.00 | 0.02 | 0.00 | 90 | 1011.2 |
| 20260508053226 | 51 | 74 | 0.0 | 0.0 | 0.00 | 0.02 | 0.00 | 90 | 1011.4 |
| 20260508052754 | 50 | 74 | 0.0 | 0.0 | 0.00 | 0.02 | 0.00 | 90 | 1011.4 |
| 20260508052223 | 50 | 74 | 0.0 | 0.0 | 0.00 | 0.02 | 0.00 | 90 | 1011.3 |
| 20260508051758 | 50 | 74 | 0.0 | 0.0 | 0.00 | 0.02 | 0.00 | 90 | 1011.0 |
| 20260508051241 | 50 | 74 | 0.0 | 0.0 | 0.00 | 0.02 | 0.00 | 90 | 1011.0 |
| 20260508050738 | 50 | 74 | 0.0 | 0.0 | 0.00 | 0.02 | 0.00 | 90 | 1011.2 |
| 20260508050248 | 50 | 74 | 0.0 | 0.0 | 0.00 | 0.02 | 0.00 | 90 | 1011.1 |
| 20260508045728 | 50 | 74 | 0.0 | 0.0 | 0.00 | 0.02 | 0.00 | 90 | 1011.0 |
| 20260508045240 | 50 | 74 | 0.0 | 0.0 | 0.00 | 0.02 | 0.00 | 90 | 1011.1 |
| 20260508044718 | 50 | 74 | 0.0 | 0.0 | 0.00 | 0.02 | 0.00 | 90 | 1011.0 |
| 20260508044221 | 50 | 74 | 0.0 | 0.0 | 0.00 | 0.02 | 0.00 | 90 | 1011.0 |
| 20260508043717 | 50 | 74 | 0.0 | 0.0 | 0.00 | 0.02 | 0.00 | 89 | 1010.9 |
| 20260508043222 | 50 | 74 | 0.0 | 0.0 | 0.00 | 0.02 | 0.00 | 89 | 1011.0 |
| 20260508042726 | 50 | 74 | 0.0 | 0.0 | 0.00 | 0.02 | 0.00 | 89 | 1011.0 |
| 20260508042229 | 50 | 74 | 0.0 | 0.0 | 0.00 | 0.02 | 0.00 | 89 | 1011.1 |
| 20260508041724 | 50 | 74 | 0.0 | 0.0 | 0.00 | 0.02 | 0.00 | 89 | 1011.0 |
| 20260508041227 | 50 | 74 | 0.0 | 0.0 | 0.00 | 0.02 | 0.00 | 88 | 1011.0 |
| 20260508040737 | 50 | 74 | 0.0 | 0.0 | 0.00 | 0.02 | 0.00 | 88 | 1011.0 |
| 20260508040240 | 50 | 74 | 0.0 | 0.0 | 0.00 | 0.02 | 0.00 | 88 | 1011.0 |
| 20260508035722 | 50 | 74 | 0.0 | 0.0 | 0.00 | 0.02 | 0.00 | 88 | 1010.9 |
| 20260508035242 | 51 | 74 | 0.0 | 0.0 | 0.00 | 0.02 | 0.00 | 88 | 1010.8 |
| 20260508034738 | 51 | 74 | 0.0 | 0.0 | 0.00 | 0.02 | 0.00 | 88 | 1010.8 |
| 20260508034238 | 51 | 74 | 0.0 | 0.0 | 0.00 | 0.02 | 0.00 | 88 | 1010.9 |
| 20260508033745 | 51 | 74 | 0.0 | 0.0 | 0.00 | 0.02 | 0.00 | 87 | 1010.9 |
| 20260508033226 | 51 | 74 | 0.0 | 0.0 | 0.00 | 0.02 | 0.00 | 87 | 1010.8 |
| 20260508032716 | 51 | 74 | 0.0 | 0.0 | 0.00 | 0.02 | 0.00 | 87 | 1010.6 |
| 20260508032241 | 51 | 74 | 0.0 | 0.0 | 0.00 | 0.02 | 0.00 | 87 | 1010.7 |
| 20260508031738 | 51 | 74 | 0.0 | 0.0 | 0.00 | 0.02 | 0.00 | 87 | 1010.8 |
| 20260508031240 | 51 | 74 | 0.0 | 0.0 | 0.00 | 0.02 | 0.00 | 87 | 1010.8 |
| 20260508030720 | 51 | 74 | 0.0 | 0.0 | 0.00 | 0.02 | 0.00 | 87 | 1010.8 |
| 20260508030242 | 51 | 74 | 0.0 | 0.0 | 0.00 | 0.02 | 0.00 | 87 | 1010.7 |
| 20260508025741 | 51 | 74 | 0.0 | 0.0 | 0.00 | 0.02 | 0.00 | 87 | 1010.8 |
| 20260508025238 | 51 | 74 | 0.0 | 0.0 | 0.00 | 0.02 | 0.00 | 87 | 1010.8 |
| 20260508024719 | 51 | 74 | 0.0 | 0.0 | 0.00 | 0.02 | 0.00 | 87 | 1010.8 |
| 20260508024219 | 51 | 74 | 0.0 | 0.0 | 0.00 | 0.02 | 0.00 | 87 | 1010.6 |
| 20260508023722 | 51 | 74 | 0.0 | 0.0 | 0.00 | 0.02 | 0.00 | 87 | 1010.4 |
| 20260508023226 | 51 | 74 | 0.0 | 0.0 | 0.00 | 0.02 | 0.00 | 87 | 1010.5 |
| 20260508022727 | 51 | 74 | 0.0 | 0.0 | 0.00 | 0.02 | 0.00 | 86 | 1010.7 |
| 20260508022301 | 51 | 74 | 0.0 | 0.0 | 0.00 | 0.02 | 0.00 | 86 | 1010.8 |
| 20260508021720 | 51 | 74 | 0.0 | 0.0 | 0.00 | 0.02 | 0.00 | 86 | 1010.8 |
| 20260508021232 | 52 | 74 | 0.0 | 0.0 | 0.00 | 0.02 | 0.00 | 86 | 1010.6 |
| 20260508020718 | 52 | 74 | 0.0 | 0.0 | 0.00 | 0.02 | 0.00 | 86 | 1010.6 |
| 20260508020217 | 52 | 74 | 0.0 | 0.0 | 0.00 | 0.02 | 0.00 | 86 | 1010.6 |
| 20260508015737 | 52 | 74 | 0.0 | 0.0 | 0.00 | 0.02 | 0.00 | 86 | 1010.7 |
| 20260508015241 | 52 | 74 | 0.0 | 0.0 | 0.00 | 0.02 | 0.00 | 86 | 1010.6 |
| 20260508014720 | 52 | 74 | 0.0 | 0.0 | 0.00 | 0.02 | 0.00 | 86 | 1010.6 |
| 20260508014238 | 52 | 74 | 0.0 | 0.0 | 0.00 | 0.02 | 0.00 | 86 | 1010.5 |
| 20260508013718 | 52 | 75 | 0.0 | 0.0 | 0.00 | 0.02 | 0.00 | 86 | 1010.5 |
| 20260508013243 | 52 | 74 | 0.0 | 0.0 | 0.00 | 0.02 | 0.00 | 86 | 1010.8 |
| 20260508012725 | 52 | 74 | 0.0 | 0.0 | 0.00 | 0.02 | 0.00 | 86 | 1010.9 |
| 20260508012217 | 52 | 74 | 0.0 | 0.0 | 0.00 | 0.02 | 0.00 | 85 | 1010.9 |
| 20260508011731 | 52 | 74 | 0.0 | 0.0 | 0.00 | 0.02 | 0.00 | 85 | 1010.9 |
| 20260508011226 | 52 | 74 | 0.0 | 0.0 | 0.00 | 0.02 | 0.00 | 85 | 1010.9 |
| 20260508010727 | 52 | 74 | 0.0 | 0.0 | 0.00 | 0.02 | 0.00 | 85 | 1011.1 |
| 20260508010228 | 52 | 74 | 0.0 | 0.0 | 0.00 | 0.02 | 0.00 | 84 | 1011.1 |
| 20260508005736 | 52 | 74 | 0.0 | 0.0 | 0.00 | 0.02 | 0.00 | 84 | 1011.1 |
| 20260508005226 | 52 | 75 | 0.0 | 0.0 | 0.00 | 0.02 | 0.00 | 84 | 1011.1 |
| 20260508004730 | 53 | 75 | 0.0 | 0.0 | 0.00 | 0.02 | 0.00 | 84 | 1011.2 |
| 20260508004229 | 53 | 75 | 0.0 | 0.0 | 0.00 | 0.02 | 0.00 | 84 | 1011.2 |
| 20260508003725 | 53 | 51 | 0.0 | 0.0 | 0.00 | 0.02 | 0.00 | 83 | 1011.3 |
| 20260508003224 | 53 | 51 | 0.0 | 0.0 | 0.00 | 0.02 | 0.00 | 84 | 1011.3 |
| 20260508002734 | 53 | 51 | 0.0 | 0.0 | 0.00 | 0.02 | 0.00 | 83 | 1011.3 |
| 20260508002254 | 53 | 97 | 0.0 | 0.0 | 0.00 | 0.02 | 0.00 | 83 | 1011.3 |
| 20260508001740 | 53 | 98 | 0.0 | 0.0 | 0.00 | 0.02 | 0.00 | 83 | 1011.4 |
| 20260508001238 | 53 | 98 | 0.0 | 0.0 | 0.00 | 0.02 | 0.00 | 83 | 1011.4 |
| 20260508000737 | 53 | 98 | 0.0 | 1.7 | 0.00 | 0.02 | 0.00 | 83 | 1011.5 |
| 20260508000250 | 54 | 98 | 0.0 | 1.7 | 0.00 | 0.02 | 0.00 | 83 | 1011.6 |
| 20260507235725 | 54 | 103 | 0.0 | 0.0 | 0.00 | 0.02 | 0.00 | 82 | 1011.6 |
| 20260507235217 | 54 | 102 | 0.0 | 0.0 | 0.00 | 0.02 | 0.00 | 82 | 1011.5 |
| 20260507234725 | 54 | 97 | 0.0 | 0.0 | 0.00 | 0.02 | 0.00 | 82 | 1011.6 |
| 20260507234225 | 54 | 96 | 0.0 | 0.0 | 0.00 | 0.02 | 0.00 | 81 | 1011.7 |
| 20260507233732 | 54 | 92 | 0.0 | 0.0 | 0.00 | 0.02 | 0.00 | 81 | 1011.8 |
| 20260507233232 | 54 | 119 | 0.0 | 0.0 | 0.00 | 0.02 | 0.00 | 81 | 1011.9 |
| 20260507232742 | 54 | 123 | 0.0 | 0.0 | 0.00 | 0.02 | 0.00 | 80 | 1011.9 |
| 20260507232236 | 55 | 68 | 0.0 | 0.0 | 0.00 | 0.02 | 0.00 | 80 | 1011.9 |
| 20260507231734 | 55 | 77 | 0.0 | 0.0 | 0.00 | 0.02 | 0.00 | 80 | 1011.9 |
| 20260507231230 | 55 | 74 | 0.0 | 0.0 | 0.00 | 0.02 | 0.00 | 79 | 1012.1 |
| 20260507230725 | 55 | 67 | 0.0 | 0.0 | 0.00 | 0.02 | 0.00 | 78 | 1012.1 |
| 20260507230225 | 55 | 88 | 0.0 | 0.0 | 0.00 | 0.02 | 0.00 | 78 | 1012.2 |
| 20260507225727 | 56 | 88 | 0.0 | 0.0 | 0.00 | 0.02 | 0.00 | 77 | 1012.2 |
| 20260507225232 | 56 | 92 | 0.0 | 0.9 | 0.00 | 0.02 | 0.00 | 77 | 1012.1 |
| 20260507224723 | 56 | 62 | 0.0 | 0.9 | 0.00 | 0.02 | 0.00 | 76 | 1012.1 |
| 20260507224222 | 56 | 82 | 0.0 | 2.6 | 0.00 | 0.02 | 0.00 | 76 | 1012.2 |
| 20260507223748 | 56 | 118 | 0.9 | 2.6 | 0.00 | 0.02 | 0.00 | 74 | 1012.2 |
| 20260507223225 | 57 | 85 | 0.0 | 1.7 | 0.00 | 0.02 | 0.00 | 74 | 1012.2 |
| 20260507222753 | 57 | 78 | 0.0 | 1.7 | 0.00 | 0.02 | 0.00 | 73 | 1012.2 |
| 20260507222228 | 57 | 96 | 0.0 | 1.7 | 0.00 | 0.02 | 0.00 | 72 | 1012.2 |
| 20260507221756 | 57 | 82 | 0.0 | 0.9 | 0.00 | 0.02 | 0.00 | 72 | 1012.2 |
| 20260507221222 | 57 | 105 | 0.0 | 0.9 | 0.00 | 0.02 | 0.00 | 72 | 1012.2 |
| 20260507220726 | 57 | 94 | 0.0 | 1.7 | 0.00 | 0.02 | 0.00 | 72 | 1012.3 |
| 20260507220226 | 57 | 83 | 0.0 | 1.7 | 0.00 | 0.02 | 0.00 | 72 | 1012.2 |
| 20260507215720 | 57 | 103 | 0.0 | 0.0 | 0.00 | 0.02 | 0.02 | 73 | 1012.2 |
| 20260507215222 | 57 | 131 | 0.0 | 1.7 | 0.00 | 0.02 | 0.02 | 73 | 1012.2 |
| 20260507214729 | 57 | 136 | 0.0 | 1.7 | 0.00 | 0.02 | 0.02 | 73 | 1012.1 |
| 20260507214225 | 57 | 88 | 0.0 | 0.9 | 0.00 | 0.02 | 0.02 | 73 | 1012.1 |
| 20260507213734 | 57 | 95 | 0.0 | 0.9 | 0.00 | 0.02 | 0.02 | 73 | 1012.1 |
| 20260507213218 | 57 | 96 | 0.0 | 0.0 | 0.00 | 0.02 | 0.02 | 74 | 1012.1 |
| 20260507212717 | 57 | 63 | 0.0 | 0.9 | 0.00 | 0.02 | 0.02 | 74 | 1012.1 |
| 20260507212239 | 57 | 58 | 0.0 | 0.9 | 0.00 | 0.02 | 0.02 | 74 | 1012.1 |
| 20260507211718 | 57 | 92 | 0.0 | 0.9 | 0.00 | 0.02 | 0.02 | 74 | 1012.0 |
| 20260507211234 | 57 | 91 | 0.0 | 0.9 | 0.00 | 0.02 | 0.02 | 74 | 1012.0 |
| 20260507210742 | 57 | 88 | 0.0 | 0.0 | 0.00 | 0.02 | 0.02 | 74 | 1012.0 |
| 20260507210248 | 57 | 87 | 0.0 | 0.0 | 0.00 | 0.02 | 0.02 | 74 | 1011.9 |
| 20260507205754 | 57 | 85 | 0.0 | 0.0 | 0.00 | 0.02 | 0.02 | 74 | 1011.9 |
| 20260507205234 | 57 | 85 | 0.0 | 0.0 | 0.00 | 0.02 | 0.02 | 74 | 1011.8 |
| 20260507204738 | 57 | 85 | 0.0 | 0.0 | 0.00 | 0.02 | 0.02 | 74 | 1011.7 |
| 20260507204224 | 57 | 70 | 0.0 | 0.0 | 0.00 | 0.02 | 0.02 | 74 | 1011.7 |
| 20260507203724 | 57 | 70 | 0.0 | 0.0 | 0.00 | 0.02 | 0.02 | 73 | 1011.6 |
| 20260507203228 | 57 | 69 | 0.0 | 0.0 | 0.00 | 0.02 | 0.02 | 72 | 1011.5 |
| 20260507202728 | 57 | 69 | 0.0 | 0.0 | 0.00 | 0.02 | 0.02 | 72 | 1011.4 |
| 20260507202220 | 58 | 69 | 0.0 | 0.0 | 0.00 | 0.02 | 0.02 | 71 | 1011.2 |
| 20260507201718 | 58 | 70 | 0.0 | 0.0 | 0.00 | 0.02 | 0.02 | 71 | 1011.1 |
| 20260507201230 | 58 | 61 | 0.0 | 0.0 | 0.00 | 0.02 | 0.02 | 71 | 1011.0 |
| 20260507200741 | 58 | 61 | 0.0 | 0.0 | 0.00 | 0.02 | 0.02 | 71 | 1011.0 |
| 20260507200217 | 59 | 60 | 0.0 | 0.0 | 0.00 | 0.02 | 0.02 | 70 | 1011.0 |
| 20260507195738 | 59 | 97 | 0.0 | 0.0 | 0.00 | 0.02 | 0.02 | 69 | 1010.9 |
| 20260507195246 | 59 | 81 | 0.0 | 0.0 | 0.00 | 0.02 | 0.02 | 69 | 1010.8 |
| 20260507194734 | 59 | 105 | 0.0 | 0.0 | 0.00 | 0.02 | 0.02 | 69 | 1010.8 |
| 20260507194231 | 59 | 95 | 0.0 | 0.0 | 0.00 | 0.02 | 0.02 | 68 | 1010.7 |
| 20260507193801 | 60 | 91 | 0.0 | 0.0 | 0.00 | 0.02 | 0.02 | 68 | 1010.8 |
| 20260507193241 | 60 | 86 | 0.0 | 0.0 | 0.00 | 0.02 | 0.02 | 68 | 1010.7 |
| 20260507192725 | 60 | 86 | 0.0 | 0.0 | 0.00 | 0.02 | 0.02 | 68 | 1010.6 |
| 20260507192233 | 60 | 86 | 0.0 | 0.0 | 0.00 | 0.02 | 0.02 | 68 | 1010.5 |
| 20260507191800 | 60 | 88 | 0.0 | 0.0 | 0.00 | 0.02 | 0.02 | 67 | 1010.4 |
| 20260507191228 | 61 | 87 | 0.0 | 0.0 | 0.00 | 0.02 | 0.02 | 66 | 1010.3 |
| 20260507190738 | 61 | 88 | 0.0 | 0.0 | 0.00 | 0.02 | 0.02 | 65 | 1010.0 |
| 20260507190248 | 61 | 87 | 0.0 | 0.0 | 0.00 | 0.02 | 0.02 | 65 | 1010.0 |
| 20260507185726 | 61 | 74 | 0.0 | 0.0 | 0.00 | 0.02 | 0.02 | 64 | 1009.9 |
| 20260507185235 | 61 | 76 | 0.0 | 0.0 | 0.00 | 0.02 | 0.02 | 63 | 1009.8 |
| 20260507184735 | 62 | 86 | 0.0 | 0.0 | 0.00 | 0.02 | 0.02 | 62 | 1009.7 |
| 20260507184223 | 62 | 95 | 0.0 | 0.0 | 0.00 | 0.02 | 0.02 | 63 | 1009.6 |
| 20260507183732 | 62 | 116 | 0.0 | 0.0 | 0.00 | 0.02 | 0.02 | 63 | 1009.6 |
| 20260507183224 | 62 | 74 | 0.0 | 0.0 | 0.00 | 0.02 | 0.02 | 62 | 1009.4 |
| 20260507182730 | 63 | 150 | 0.0 | 0.0 | 0.00 | 0.02 | 0.02 | 61 | 1009.4 |
| 20260507182233 | 63 | 109 | 0.0 | 0.0 | 0.00 | 0.02 | 0.02 | 59 | 1009.5 |
| 20260507181716 | 64 | 115 | 0.0 | 0.0 | 0.00 | 0.02 | 0.02 | 57 | 1009.4 |
| 20260507181230 | 64 | 163 | 0.0 | 0.0 | 0.00 | 0.02 | 0.02 | 57 | 1009.4 |
| 20260507180742 | 65 | 102 | 0.0 | 0.0 | 0.00 | 0.02 | 0.02 | 56 | 1009.3 |
| 20260507180225 | 66 | 142 | 0.0 | 0.0 | 0.00 | 0.02 | 0.02 | 51 | 1009.3 |
| 20260507175733 | 66 | 115 | 0.0 | 0.9 | 0.00 | 0.02 | 0.02 | 48 | 1009.1 |
| 20260507175222 | 67 | 69 | 0.0 | 2.6 | 0.00 | 0.02 | 0.02 | 47 | 1009.1 |
| 20260507174727 | 67 | 74 | 0.0 | 2.6 | 0.00 | 0.02 | 0.02 | 48 | 1009.2 |
| 20260507174229 | 67 | 76 | 0.0 | 2.6 | 0.00 | 0.02 | 0.02 | 47 | 1009.1 |
| 20260507173722 | 67 | 85 | 0.0 | 0.9 | 0.00 | 0.02 | 0.02 | 47 | 1009.1 |
| 20260507173225 | 67 | 101 | 0.0 | 0.9 | 0.00 | 0.02 | 0.02 | 49 | 1009.0 |
| 20260507172730 | 67 | 59 | 0.0 | 6.1 | 0.00 | 0.02 | 0.02 | 48 | 1009.0 |
| 20260507172219 | 67 | 86 | 0.9 | 6.1 | 0.00 | 0.02 | 0.02 | 49 | 1009.1 |
| 20260507171753 | 68 | 88 | 0.9 | 5.2 | 0.00 | 0.02 | 0.02 | 49 | 1008.9 |
| 20260507171233 | 68 | 96 | 0.9 | 7.0 | 0.00 | 0.02 | 0.02 | 47 | 1008.9 |
| 20260507170728 | 69 | 80 | 0.9 | 7.8 | 0.00 | 0.02 | 0.02 | 47 | 1008.8 |
| 20260507170226 | 70 | 77 | 4.3 | 7.8 | 0.00 | 0.02 | 0.02 | 45 | 1008.8 |
| 20260507165736 | 70 | 96 | 0.0 | 6.1 | 0.00 | 0.02 | 0.02 | 45 | 1008.8 |
| 20260507165226 | 71 | 28 | 1.7 | 6.1 | 0.00 | 0.02 | 0.02 | 44 | 1008.8 |
| 20260507164748 | 71 | 126 | 0.0 | 0.9 | 0.00 | 0.02 | 0.02 | 44 | 1008.8 |
| 20260507164300 | 71 | 139 | 0.0 | 0.9 | 0.00 | 0.02 | 0.02 | 38 | 1008.7 |
| 20260507163737 | 71 | 169 | 0.0 | 0.9 | 0.00 | 0.02 | 0.02 | 39 | 1008.6 |
| 20260507163239 | 71 | 187 | 0.0 | 0.9 | 0.00 | 0.02 | 0.02 | 39 | 1008.7 |
| 20260507162733 | 71 | 142 | 0.0 | 0.9 | 0.00 | 0.02 | 0.02 | 40 | 1008.6 |
| 20260507162229 | 70 | 254 | 0.0 | 0.9 | 0.00 | 0.02 | 0.02 | 41 | 1008.5 |
| 20260507161732 | 70 | 254 | 0.0 | 0.9 | 0.00 | 0.02 | 0.02 | 41 | 1008.6 |
| 20260507161234 | 69 | 254 | 0.0 | 2.6 | 0.00 | 0.02 | 0.02 | 42 | 1008.7 |
| 20260507160716 | 70 | 254 | 0.0 | 2.6 | 0.00 | 0.02 | 0.02 | 41 | 1008.6 |
| 20260507160216 | 71 | 251 | 1.7 | 5.2 | 0.00 | 0.02 | 0.02 | 40 | 1008.6 |
| 20260507155715 | 72 | 229 | 3.5 | 5.2 | 0.00 | 0.02 | 0.02 | 39 | 1008.5 |
| 20260507155219 | 72 | 242 | 1.7 | 11.3 | 0.00 | 0.02 | 0.02 | 40 | 1008.5 |
| 20260507154718 | 71 | 260 | 1.7 | 11.3 | 0.00 | 0.02 | 0.02 | 40 | 1008.6 |
| 20260507154221 | 71 | 267 | 0.0 | 2.6 | 0.00 | 0.02 | 0.02 | 40 | 1008.6 |
| 20260507153729 | 70 | 237 | 0.0 | 4.3 | 0.00 | 0.02 | 0.02 | 41 | 1008.6 |
| 20260507153221 | 70 | 262 | 0.9 | 5.2 | 0.00 | 0.02 | 0.02 | 39 | 1008.7 |
| 20260507152747 | 70 | 237 | 2.6 | 5.2 | 0.00 | 0.02 | 0.02 | 40 | 1008.7 |
| 20260507152255 | 70 | 250 | 0.9 | 5.2 | 0.00 | 0.02 | 0.02 | 40 | 1008.7 |
| 20260507151725 | 71 | 214 | 1.7 | 6.1 | 0.00 | 0.02 | 0.02 | 39 | 1008.9 |
| 20260507151247 | 71 | 218 | 1.7 | 6.1 | 0.00 | 0.02 | 0.02 | 40 | 1008.8 |
| 20260507150718 | 70 | 254 | 0.0 | 1.7 | 0.00 | 0.02 | 0.02 | 42 | 1008.8 |
| 20260507150216 | 69 | 234 | 0.0 | 3.5 | 0.00 | 0.02 | 0.02 | 42 | 1008.8 |
| 20260507145720 | 69 | 234 | 0.9 | 4.3 | 0.00 | 0.02 | 0.02 | 41 | 1008.8 |
| 20260507145215 | 70 | 260 | 0.9 | 4.3 | 0.00 | 0.02 | 0.02 | 40 | 1008.8 |
| 20260507144739 | 71 | 225 | 1.7 | 4.3 | 0.00 | 0.02 | 0.02 | 38 | 1008.8 |
| 20260507144216 | 71 | 195 | 0.0 | 4.3 | 0.00 | 0.02 | 0.02 | 38 | 1009.0 |
| 20260507143725 | 71 | 172 | 1.7 | 9.6 | 0.00 | 0.02 | 0.02 | 38 | 1009.1 |
| 20260507143303 | 71 | 214 | 1.7 | 9.6 | 0.00 | 0.02 | 0.02 | 39 | 1009.2 |
| 20260507142719 | 71 | 234 | 1.7 | 6.1 | 0.00 | 0.02 | 0.02 | 39 | 1009.2 |
| 20260507142221 | 70 | 205 | 0.9 | 6.1 | 0.00 | 0.02 | 0.02 | 39 | 1009.2 |
| 20260507141740 | 69 | 207 | 0.0 | 5.2 | 0.00 | 0.02 | 0.02 | 38 | 1009.3 |
| 20260507141233 | 70 | 260 | 2.6 | 5.2 | 0.00 | 0.02 | 0.02 | 37 | 1009.4 |
| 20260507140725 | 71 | 267 | 1.7 | 7.8 | 0.00 | 0.02 | 0.02 | 35 | 1009.4 |
| 20260507140249 | 71 | 242 | 1.7 | 7.8 | 0.00 | 0.02 | 0.02 | 35 | 1009.4 |
| 20260507135752 | 72 | 236 | 3.5 | 6.1 | 0.00 | 0.02 | 0.02 | 36 | 1009.4 |
| 20260507135229 | 71 | 187 | 0.0 | 4.3 | 0.00 | 0.02 | 0.02 | 41 | 1009.5 |
| 20260507134749 | 70 | 198 | 0.9 | 8.7 | 0.00 | 0.02 | 0.02 | 40 | 1009.5 |
| 20260507134228 | 69 | 197 | 1.7 | 8.7 | 0.00 | 0.02 | 0.02 | 41 | 1009.6 |
| 20260507133739 | 69 | 190 | 0.9 | 2.6 | 0.00 | 0.02 | 0.02 | 41 | 1009.6 |
| 20260507133219 | 69 | 173 | 0.0 | 6.1 | 0.00 | 0.02 | 0.02 | 42 | 1009.6 |
| 20260507132719 | 69 | 238 | 0.9 | 6.1 | 0.00 | 0.02 | 0.02 | 39 | 1009.6 |
| 20260507132222 | 69 | 189 | 0.9 | 3.5 | 0.00 | 0.02 | 0.02 | 42 | 1009.8 |
| 20260507131738 | 69 | 275 | 0.0 | 9.6 | 0.00 | 0.02 | 0.02 | 40 | 1009.6 |
| 20260507131226 | 69 | 169 | 6.1 | 9.6 | 0.00 | 0.02 | 0.02 | 41 | 1009.9 |
| 20260507130736 | 69 | 236 | 0.9 | 8.7 | 0.00 | 0.02 | 0.02 | 43 | 1009.9 |
| 20260507130244 | 68 | 286 | 0.0 | 2.6 | 0.00 | 0.02 | 0.02 | 46 | 1009.9 |